This demonstration page uses our WeatherBlox Daily Observations layout. Learn more.

Left ArrowRight Arrow

41.12389, -100.76542

Hourly Observations for March 20, 2015

Temp ( °F °C ) Dew Point ( °F °C ) Humidity (%) Winds ( mph kmh ) Pressure ( in mb ) Visibility ( mi km ) Precip ( " mm )
12:53 am 00:53 Clear 29 -1.7 22 -5.6 75 75 Calm 30.16 1021 10 16 0.00 0.00
1:53 am 01:53 Clear 25 -3.9 20 -6.7 81 81 Calm 30.16 1021 10 16 0.00 0.00
2:53 am 02:53 Clear 25 -3.9 20 -6.7 81 81 Calm 30.16 1022 10 16 0.00 0.00
3:53 am 03:53 Clear 23 -5 20 -6.7 88 88 NW 3 6 30.16 1021 10 16 0.00 0.00
4:53 am 04:53 Clear 22 -5.6 18 -7.8 85 85 WNW 6 9 30.16 1021 10 16 0.00 0.00
5:53 am 05:53 Clear 22 -5.6 18 -7.8 85 85 NW 6 9 30.16 1021 10 16 0.00 0.00
6:53 am 06:53 Clear 23 -5 19 -7.2 85 85 Calm 30.16 1022 10 16 0.00 0.00
7:53 am 07:53 Sunny 22 -5.6 18 -7.8 85 85 Calm 30.19 1022 10 16 0.00 0.00
8:53 am 08:53 Sunny 31 -0.6 25 -3.9 79 79 Calm 30.19 1022 N/A 0.00 0.00
9:53 am 09:53 Sunny 42 5.6 32 0 68 68 W 8 13 30.18 1022 N/A 0.00 0.00
10:53 am 10:53 Sunny 53 11.7 34 1.1 48 48 W 12 19 30.17 1022 10 16 0.00 0.00
11:53 am 11:53 Sunny 64 17.8 31 -0.6 29 29 W 20 31 30.14 1021 10 16 0.00 0.00
12:53 pm 12:53 Sunny 69 20.6 29 -1.7 22 22 W 20 31 30.11 1020 10 16 0.00 0.00
1:53 pm 13:53 Sunny 71 21.7 25 -3.9 18 18 W 15 24 30.08 1019 10 16 0.00 0.00
2:53 pm 14:53 Sunny 73 22.8 16 -8.9 11 11 W 17 28 30.05 1018 10 16 0.00 0.00
3:53 pm 15:53 Sunny 74 23.3 18 -7.8 12 12 WSW 13 20 30.04 1017 10 16 0.00 0.00
4:53 pm 16:53 Sunny 74 23.3 21 -6.1 14 14 W 10 17 30.04 1017 10 16 0.00 0.00
5:53 pm 17:53 Sunny 74 23.3 19 -7.2 12 12 SW 6 9 30.04 1017 10 16 0.00 0.00
6:53 pm 18:53 Sunny 71 21.7 19 -7.2 14 14 SW 8 13 30.04 1017 10 16 0.00 0.00
7:53 pm 19:53 Sunny 64 17.8 22 -5.6 20 20 SSW 6 9 30.06 1018 10 16 0.00 0.00
8:53 pm 20:53 Clear 61 16.1 21 -6.1 21 21 N 7 11 30.06 1018 10 16 0.00 0.00
9:53 pm 21:53 Clear 50 10 23 -5 35 35 NE 9 15 30.09 1019 10 16 0.00 0.00
10:53 pm 22:53 Clear 46 7.8 23 -5 40 40 ENE 3 6 30.10 1019 10 16 0.00 0.00
11:53 pm 23:53 Clear 39 3.9 23 -5 53 53 Calm 30.09 1019 10 16 0.00 0.00

Powered by AerisWeather